STARLINK-1736, 46585

Orbit data source: Space-Track

STARLINK-1736, 46585 is a payload satellite owned by SpaceX/Seattle (US) in LEO that was launched on Tue, 06 Oct 2020 UTC via an FALCON 9 launch vehicle from the Air Force Eastern Test Range (AFETR). Payload-class satellites include a variety of spacecraft equipped with specific instruments for various scientific and technological missions. These include communications satellites like Starlink; space stations such as the ISS; scientific satellites like the Hubble; Earth observation satellites from companies like Planet Labs, Umbra, and HawkEye 360; GPS; miniature CubeSats for education and research; and military/defense satellites.

Not visible in the next 10 days
Identifier
46585, 2020-070BF
Orbit
LEO
Country
Flag of USUS
Related business
Manufacturer
SpaceX/Seattle
Mission
Partially operational Commercial Communications
Bus & Motor
STARLINK, Unknown motor
Mass
260 kg wet, ~248 kg dry
Launch date (UTC)
2020-10-06 (6 years ago)
Launch vehicle
FALCON 9
Launch site
Air Force Eastern Test Range (AFETR)
Object type
Payload
Rocket body
Debris
Shape & HBR
Box + 1 Pan, 10.1 m
Radar Cross Section
13.562 m², Large (>1 m²)

Expand to show TLE details & history
Last TLE update: 4 hours ago

TLE from 4 hours ago
0 STARLINK-1736
1 46585U 20070BF  26123.33334491  .00139710  00000-0  67458-3 0  9995
2 46585  53.0350 204.3278 0009656 352.2859 220.2647 15.81608452  6001
Epoch: 2026-05-03T08:00Z
TLE epoch observation values (Epoch: 2026-05-03T08:00:01.000Z)
Latitude
-25.60998°
Longitude
64.10655°
Altitude
338.319 km
Speed
7.703 km/s
True Right ascension
03h 01m 23s
True Declination
-25° 28' 04"
Sunlit
Object was in daylight at epoch
Visualization orbit readout
Latitude
Unknown
Longitude
Unknown
Altitude
Unknown
Speed
Unknown
Apparent Right ascension
Unknown
Apparent Declination
Unknown
Sunlit
N/A
Visualization observer readout
Local Sidereal Time
19:51:40
Azimuth
Unknown
Elevation
Unknown
Doppler factor
Unknown
Orbital elements
Apogee altitude
332.648 km
Perigee altitude
319.7 km
Semi-major axis
6,704.311 km
Eccentricity
0.00097
Inclination
53.035°
RAAN
204.3278°
Arg. of periapsis
352.2859°
True anomaly
220.19325°
Mean anomaly
220.2647°
Eccentric anomaly
220.22897°
Mean motion
3.95377 °/min
Orbital period
91.05 mins
BSTAR
0.00067458
Loading maneuver chart data...
Computing Atmospheric mass density...

Documentation

Showing up to 5 results
|